When you browse on this site, cookies collect data to enhance your experience and personalize the content and advertising you see.
Visit our Privacy Policy to learn more. By continuing to use the site, you agree to this use of cookies and data.

Meteo pe oră la Maan

Astăzi, 24 Septembrie, Joi

Timp Temperatura Precipitaţii Vânt Presiune Umiditate
00:00 +16°C° 0 mm 2 m/s 636 mmHg 83%
01:00 +15°C° 0 mm 1 m/s 636 mmHg 84%
02:00 +15°C° 0 mm 1 m/s 635 mmHg 84%
03:00 +14°C° 0 mm 1 m/s 635 mmHg 84%
04:00 +14°C° 0 mm 1 m/s 635 mmHg 84%
05:00 +14°C° 0 mm 1 m/s 636 mmHg 84%
06:00 +16°C° 0 mm 1 m/s 636 mmHg 74%
07:00 +19°C° 0 mm 1 m/s 637 mmHg 64%
08:00 +21°C° 0 mm 2 m/s 638 mmHg 54%
09:00 +23°C° 0 mm 2 m/s 638 mmHg 48%
10:00 +25°C° 0 mm 2 m/s 639 mmHg 43%
11:00 +27°C° 0 mm 2 m/s 639 mmHg 37%
12:00 +27°C° 0 mm 3 m/s 639 mmHg 34%
13:00 +28°C° 0 mm 3 m/s 638 mmHg 30%
14:00 +29°C° 0 mm 4 m/s 638 mmHg 27%
15:00 +28°C° 0 mm 4 m/s 638 mmHg 29%
16:00 +26°C° 0 mm 4 m/s 637 mmHg 32%
17:00 +25°C° 0 mm 4 m/s 637 mmHg 34%
18:00 +22°C° 0 mm 3 m/s 636 mmHg 42%
19:00 +19°C° 0 mm 3 m/s 636 mmHg 51%
20:00 +17°C° 0 mm 2 m/s 636 mmHg 59%
21:00 +16°C° 0 mm 2 m/s 636 mmHg 63%
22:00 +16°C° 0 mm 2 m/s 636 mmHg 67%
23:00 +15°C° 0 mm 2 m/s 636 mmHg 70%

Mâine, 25 Septembrie, Vineri

Timp Temperatura Precipitaţii Vânt Presiune Umiditate
00:00 +14°C° 0 mm 1 m/s 635 mmHg 72%
01:00 +14°C° 0 mm 1 m/s 635 mmHg 74%
02:00 +12°C° 0 mm 0 m/s 635 mmHg 77%
03:00 +13°C° 0 mm 1 m/s 634 mmHg 77%
04:00 +13°C° 0 mm 1 m/s 634 mmHg 77%
05:00 +12°C° 0 mm 1 m/s 634 mmHg 77%
06:00 +15°C° 0 mm 1 m/s 635 mmHg 65%
07:00 +19°C° 0 mm 1 m/s 636 mmHg 53%
08:00 +22°C° 0 mm 1 m/s 637 mmHg 41%
09:00 +23°C° 0 mm 2 m/s 638 mmHg 36%
10:00 +25°C° 0 mm 2 m/s 638 mmHg 32%
11:00 +27°C° 0 mm 3 m/s 638 mmHg 27%
12:00 +28°C° 0 mm 3 m/s 638 mmHg 26%
13:00 +28°C° 0 mm 4 m/s 637 mmHg 24%
14:00 +28°C° 0 mm 4 m/s 637 mmHg 23%
15:00 +27°C° 0 mm 4 m/s 636 mmHg 23%
16:00 +26°C° 0 mm 4 m/s 636 mmHg 24%
17:00 +23°C° 0 mm 4 m/s 635 mmHg 24%
18:00 +21°C° 0 mm 4 m/s 635 mmHg 39%
19:00 +18°C° 0 mm 4 m/s 635 mmHg 54%
20:00 +16°C° 0 mm 3 m/s 634 mmHg 69%
21:00 +14°C° 0 mm 3 m/s 634 mmHg 73%
22:00 +14°C° 0 mm 3 m/s 634 mmHg 77%
23:00 +14°C° 0 mm 2 m/s 634 mmHg 81%

Poimâine, 26 Septembrie, Sâmbătă

Timp Temperatura Precipitaţii Vânt Presiune Umiditate
00:00 +14°C° 0 mm 2 m/s 634 mmHg 77%
01:00 +13°C° 0 mm 2 m/s 633 mmHg 73%
02:00 +13°C° 0 mm 1 m/s 633 mmHg 69%
03:00 +13°C° 0 mm 1 m/s 633 mmHg 71%
04:00 +12°C° 0 mm 1 m/s 633 mmHg 73%
05:00 +12°C° 0 mm 1 m/s 633 mmHg 75%
06:00 +15°C° 0 mm 1 m/s 634 mmHg 65%
07:00 +18°C° 0 mm 1 m/s 635 mmHg 54%
08:00 +21°C° 0 mm 1 m/s 636 mmHg 43%
09:00 +21°C° 0 mm 2 m/s 636 mmHg 39%
10:00 +24°C° 0 mm 2 m/s 637 mmHg 34%
11:00 +26°C° 0 mm 3 m/s 637 mmHg 29%
12:00 +26°C° 0 mm 3 m/s 637 mmHg 30%
13:00 +27°C° 0 mm 4 m/s 636 mmHg 30%
14:00 +27°C° 0 mm 4 m/s 636 mmHg 31%
15:00 +26°C° 0 mm 4 m/s 636 mmHg 35%
16:00 +25°C° 0 mm 4 m/s 635 mmHg 38%
17:00 +23°C° 0 mm 4 m/s 635 mmHg 42%
18:00 +20°C° 0 mm 3 m/s 635 mmHg 52%
19:00 +18°C° 0 mm 3 m/s 635 mmHg 61%
20:00 +16°C° 0 mm 2 m/s 634 mmHg 71%
21:00 +16°C° 0 mm 2 m/s 634 mmHg 72%
22:00 +15°C° 0 mm 2 m/s 634 mmHg 73%
23:00 +15°C° 0 mm 1 m/s 635 mmHg 74%

27 Septembrie, Duminică

Timp Temperatura Precipitaţii Vânt Presiune Umiditate
00:00 +14°C° 0 mm 1 m/s 634 mmHg 76%
01:00 +13°C° 0 mm 1 m/s 634 mmHg 78%
02:00 +12°C° 0 mm 0 m/s 634 mmHg 81%
03:00 +11°C° 0 mm 0 m/s 634 mmHg 81%
04:00 +11°C° 0 mm 0 m/s 634 mmHg 81%
05:00 +11°C° 0 mm 0 m/s 634 mmHg 81%
06:00 +15°C° 0 mm 1 m/s 636 mmHg 69%
07:00 +18°C° 0 mm 1 m/s 637 mmHg 57%
08:00 +21°C° 0 mm 1 m/s 638 mmHg 45%
09:00 +23°C° 0 mm 2 m/s 638 mmHg 40%
10:00 +25°C° 0 mm 2 m/s 639 mmHg 34%
11:00 +26°C° 0 mm 3 m/s 639 mmHg 29%
12:00 +27°C° 0 mm 3 m/s 639 mmHg 26%
13:00 +28°C° 0 mm 3 m/s 639 mmHg 24%
14:00 +29°C° 0 mm 3 m/s 638 mmHg 21%
15:00 +28°C° 0 mm 3 m/s 638 mmHg 22%
16:00 +27°C° 0 mm 3 m/s 638 mmHg 23%
17:00 +26°C° 0 mm 3 m/s 637 mmHg 24%
18:00 +24°C° 0 mm 3 m/s 637 mmHg 27%
19:00 +22°C° 0 mm 4 m/s 637 mmHg 31%
20:00 +20°C° 0 mm 4 m/s 637 mmHg 34%
21:00 +19°C° 0 mm 4 m/s 637 mmHg 34%
22:00 +19°C° 0 mm 4 m/s 637 mmHg 33%
23:00 +19°C° 0 mm 4 m/s 638 mmHg 32%

28 Septembrie, Luni

Timp Temperatura Precipitaţii Vânt Presiune Umiditate
00:00 +18°C° 0 mm 4 m/s 637 mmHg 36%
01:00 +18°C° 0 mm 4 m/s 637 mmHg 40%
02:00 +17°C° 0 mm 3 m/s 637 mmHg 44%
03:00 +17°C° 0 mm 3 m/s 637 mmHg 46%
04:00 +17°C° 0 mm 3 m/s 637 mmHg 48%
05:00 +16°C° 0 mm 3 m/s 637 mmHg 50%
06:00 +19°C° 0 mm 3 m/s 638 mmHg 43%
07:00 +21°C° 0 mm 4 m/s 639 mmHg 36%
08:00 +23°C° 0 mm 4 m/s 640 mmHg 29%
09:00 +26°C° 0 mm 4 m/s 641 mmHg 25%
10:00 +28°C° 0 mm 5 m/s 641 mmHg 21%
11:00 +30°C° 0 mm 5 m/s 641 mmHg 17%
12:00 +32°C° 0 mm 5 m/s 641 mmHg 16%
13:00 +32°C° 0 mm 5 m/s 640 mmHg 14%
14:00 +33°C° 0 mm 5 m/s 640 mmHg 13%
15:00 +32°C° 0 mm 4 m/s 640 mmHg 14%
16:00 +30°C° 0 mm 4 m/s 639 mmHg 15%
17:00 +28°C° 0 mm 3 m/s 639 mmHg 16%
18:00 +27°C° 0 mm 3 m/s 638 mmHg 19%
19:00 +25°C° 0 mm 3 m/s 638 mmHg 22%
20:00 +22°C° 0 mm 3 m/s 638 mmHg 25%
21:00 +21°C° 0 mm 4 m/s 638 mmHg 26%
22:00 +21°C° 0 mm 4 m/s 638 mmHg 28%
23:00 +21°C° 0 mm 4 m/s 638 mmHg 29%

29 Septembrie, Marţi

Timp Temperatura Precipitaţii Vânt Presiune Umiditate
00:00 +20°C° 0 mm 4 m/s 638 mmHg 32%
01:00 +20°C° 0 mm 3 m/s 637 mmHg 34%
02:00 +19°C° 0 mm 3 m/s 637 mmHg 37%
03:00 +19°C° 0 mm 3 m/s 637 mmHg 38%
04:00 +18°C° 0 mm 3 m/s 637 mmHg 39%
05:00 +18°C° 0 mm 3 m/s 637 mmHg 40%
06:00 +20°C° 0 mm 3 m/s 638 mmHg 34%
07:00 +24°C° 0 mm 3 m/s 639 mmHg 28%
08:00 +27°C° 0 mm 3 m/s 640 mmHg 22%
09:00 +28°C° 0 mm 3 m/s 640 mmHg 19%
10:00 +30°C° 0 mm 3 m/s 640 mmHg 16%
11:00 +32°C° 0 mm 4 m/s 640 mmHg 14%
12:00 +33°C° 0 mm 3 m/s 640 mmHg 13%
13:00 +34°C° 0 mm 3 m/s 639 mmHg 12%
14:00 +34°C° 0 mm 3 m/s 639 mmHg 10%
15:00 +33°C° 0 mm 3 m/s 638 mmHg 12%
16:00 +30°C° 0 mm 3 m/s 637 mmHg 13%
17:00 +29°C° 0 mm 3 m/s 637 mmHg 14%
18:00 +27°C° 0 mm 3 m/s 636 mmHg 20%
19:00 +24°C° 0 mm 2 m/s 636 mmHg 25%
20:00 +21°C° 0 mm 2 m/s 635 mmHg 30%
21:00 +21°C° 0 mm 2 m/s 635 mmHg 30%
22:00 +20°C° 0 mm 2 m/s 635 mmHg 30%
23:00 +20°C° 0 mm 2 m/s 635 mmHg 29%
Arată mai mult